星链-36734(STARLINK-36734)

导读

STARLINK-36734(NORAD编号67988)是美国SpaceX公司星链(Starlink)星座的一员,属于第二代低轨互联网通信卫星。该卫星运行于近地轨道(LEO),是SpaceX大规模星座部署计划的组成部分,旨在为全球提供高速、低延迟的卫星互联网服务,支持消费级宽带接入与移动通信拓展。 它采用第二代星链卫星的优化设计,配备改进型亮度抑制技术降低对天文观测干扰,集成星间激光链路以提升通信效率,遵循太空可持续设计,故障后可较快离轨减少空间碎片。作为截至2026年星链近万颗在轨卫星之一,该卫星支撑起全球覆盖的天基通信网络,既服务偏远地区网络接入,也具备商用与特殊场景通信潜力。

Basic Information
目录编号:
67988
目录名称:
STARLINK-36734
国际标识:
2026-039C
轨道中心:
EARTH
卫星名称:
星链-36734
卫星全名:
星链-36734(STARLINK-36734)
卫星状态:
在轨 (已飞行200 天)
发射日期:
2026-02-27 UTC
国别 :
美国 (US)
星等 :
--
This satellite is enrolled in the Space Conjunction Data Service (SCDS) and the current flight risk assessment level is: High Risk
Orbit Information
数据来源 国际轨道数据
星历时间: 2026-09-15T03:26:34+0800
15小时前
查看轨道信息
半长轴: 6861.16km
偏心率: 0.0001623
轨道倾角: 43.002°
近地点辐角 274.482°
升交点赤经 61.189°
平近点角 85.585°
近地点: 481.909km
远地点: 484.137km
周期: 94.266分钟
每日圈数: 15.275888
Detailed Information
固有亮度:
5
最大亮度:
2.5
卫星平台:
Starlink V1.0
覆盖范围:
全球
运营商:
太空探索技术公司
运营商所在国:
美国
制造商(研发单位):
太空探索技术公司
制造商所在国:
美国
使用方式:
暂无
Satellite Introduction
Starlink 计划是 SpaceX 推出的全球卫星互联网项目,通过发射低轨道卫星,为全球尤其是偏远地区提供高速、低延迟的互联网服务。自 2019 年起,Starlink 已部署数千颗卫星,旨在缩小全球数字鸿沟,推动互联网普及。该项目还为军事、航空等行业提供通信支持,带来广泛经济效益。
2D Orbit Map
3D Orbit Map
Orbit Altitude Analysis Chart
Orbit Inclination Analysis Chart
Orbit Comprehensive Analysis Chart
View Comprehensive Chart
Conjunction Data List
Event ID Objects TCA Miss Dist (km) Collision Risk Probability Collision Risk Index (CRI) Action
CDM_260916-114005-791006-798821
2026-09-16T
11:40:29+0000
0.594 km
远距离
8.993088E-5 中风险 0.74
CDM_260910-221705-791006-798821
2026-09-10T
22:17:09+0000
0.765 km
远距离
4.239964E-5 中风险 0.68
CDM_260910-091705-818606-798823
2026-09-10T
09:17:19+0000
0.901 km
远距离
2.419597E-5 中风险 0.63
CDM_260910-210305-818606-798823
2026-09-10T
21:03:29+0000
1.067 km
极远距离
1.353889E-5 中风险 0.58
CDM_260916-215205-791006-798821
2026-09-16T
21:52:29+0000
1.077 km
极远距离
1.34485E-5 中风险 0.58
CDM_260917-012705-639606-798821
2026-09-17T
01:27:29+0000
1.160 km
极远距离
1.202145E-5 中风险 0.57
CDM_260910-105105-818606-798822
2026-09-10T
10:51:28+0000
1.390 km
极远距离
5.481686E-6 低风险 0.5
CDM_260910-204305-791006-798821
2026-09-10T
20:43:00+0000
1.469 km
极远距离
4.678375E-6 低风险 0.48
CDM_260917-030105-639606-798821
2026-09-17T
03:01:38+0000
1.626 km
极远距离
3.90785E-6 低风险 0.47
CDM_260910-223705-818606-798822
2026-09-10T
22:37:38+0000
1.650 km
极远距离
3.187608E-6 低风险 0.45
Miss Distance Evolution Trend with All Objects Subscribe to Flight Safety Assessment
Collision Probability Evolution Trend with All Objects Subscribe to Flight Safety Assessment